VTD754 UWSG-UWSG

Flight info

Callsign VTD754
Flight time 0h 20m
Altitude 2000
Route RA/020
Aircraft C172/L-SDGY/C

Departure

Time 2026-04-27 13:56
Airport Gagarin International Airport (UWSG)

Arrival

Time 2026-04-27 14:16
Airport Gagarin International Airport (UWSG)
Time Latitude Longitude Altitude Speed Heading
2026-04-27 13:41 51.71560 46.17102 99 ft 0 kts 182°
2026-04-27 13:51 51.71556 46.17101 99 ft 5 kts 182°
2026-04-27 13:52 51.71524 46.17136 99 ft 8 kts 100°
2026-04-27 13:52 51.71520 46.17260 100 ft 14 kts 92°
2026-04-27 13:52 51.71519 46.17331 100 ft 0 kts 92°
2026-04-27 13:53 51.71519 46.17337 100 ft 5 kts 92°
2026-04-27 13:53 51.71468 46.17420 101 ft 13 kts 184°
2026-04-27 13:53 51.71386 46.17415 101 ft 11 kts 182°
2026-04-27 13:54 51.71370 46.17414 101 ft 0 kts 182°
2026-04-27 13:54 51.71341 46.17412 101 ft 11 kts 182°
2026-04-27 13:54 51.71267 46.17382 103 ft 10 kts 229°
2026-04-27 13:54 51.71259 46.17335 103 ft 0 kts 270°
2026-04-27 13:55 51.71261 46.17207 101 ft 38 kts 273°
2026-04-27 13:55 51.71276 46.16576 183 ft 67 kts 269°
2026-04-27 13:55 51.71285 46.15788 401 ft 71 kts 267°
2026-04-27 13:56 51.71315 46.15016 673 ft 69 kts 268°
2026-04-27 13:56 51.71335 46.14244 920 ft 68 kts 266°
2026-04-27 13:56 51.71357 46.13515 1200 ft 66 kts 264°
2026-04-27 13:56 51.71358 46.12752 1380 ft 71 kts 264°
2026-04-27 13:57 51.71381 46.11929 1561 ft 76 kts 265°
2026-04-27 13:57 51.71409 46.11075 1757 ft 75 kts 266°
2026-04-27 13:57 51.71434 46.10234 1928 ft 75 kts 266°
2026-04-27 13:57 51.71447 46.09374 1976 ft 78 kts 265°
2026-04-27 13:58 51.71518 46.08503 1998 ft 83 kts 288°
2026-04-27 13:58 51.72065 46.08004 1984 ft 106 kts 341°
2026-04-27 13:58 51.72819 46.08026 1980 ft 109 kts 347°
2026-04-27 13:58 51.73593 46.08060 1986 ft 110 kts 347°
2026-04-27 13:59 51.74366 46.08110 1989 ft 113 kts 349°
2026-04-27 13:59 51.75151 46.08143 2045 ft 111 kts 347°
2026-04-27 13:59 51.75949 46.08151 2013 ft 118 kts 348°
2026-04-27 13:59 51.76785 46.08193 1964 ft 120 kts 348°
2026-04-27 14:00 51.77603 46.08240 1961 ft 119 kts 354°
2026-04-27 14:00 51.78363 46.08896 1965 ft 131 kts 39°
2026-04-27 14:00 51.78835 46.10153 1951 ft 132 kts 76°
2026-04-27 14:00 51.78913 46.11595 1931 ft 129 kts 98°
2026-04-27 14:01 51.78886 46.13017 1982 ft 125 kts 97°
2026-04-27 14:01 51.78846 46.14413 2005 ft 124 kts 98°
2026-04-27 14:01 51.78812 46.15807 2024 ft 124 kts 98°
2026-04-27 14:01 51.78766 46.17209 2004 ft 126 kts 99°
2026-04-27 14:02 51.78719 46.18634 1953 ft 128 kts 98°
2026-04-27 14:02 51.78681 46.20041 1950 ft 126 kts 100°
2026-04-27 14:02 51.78640 46.21464 1940 ft 128 kts 100°
2026-04-27 14:02 51.78565 46.22874 1956 ft 122 kts 114°
2026-04-27 14:03 51.78220 46.24077 1927 ft 118 kts 129°
2026-04-27 14:03 51.77772 46.25084 1982 ft 103 kts 149°
2026-04-27 14:03 51.77232 46.25749 2012 ft 93 kts 167°
2026-04-27 14:03 51.76648 46.26020 2008 ft 85 kts 190°
2026-04-27 14:04 51.76091 46.25938 2011 ft 79 kts 206°
2026-04-27 14:04 51.75522 46.25802 1980 ft 83 kts 198°
2026-04-27 14:04 51.74951 46.25719 1986 ft 82 kts 200°
2026-04-27 14:04 51.74370 46.25634 1967 ft 85 kts 196°
2026-04-27 14:05 51.73778 46.25550 1969 ft 83 kts 200°
2026-04-27 14:05 51.73215 46.25389 1978 ft 81 kts 202°
2026-04-27 14:05 51.72662 46.25197 1970 ft 82 kts 206°
2026-04-27 14:05 51.72113 46.24928 1945 ft 83 kts 207°
2026-04-27 14:06 51.71538 46.24726 1945 ft 85 kts 204°
2026-04-27 14:06 51.70961 46.24531 1944 ft 84 kts 204°
2026-04-27 14:06 51.70388 46.24334 1942 ft 84 kts 204°
2026-04-27 14:06 51.69818 46.24136 1939 ft 83 kts 204°
2026-04-27 14:07 51.69242 46.23985 1934 ft 84 kts 201°
2026-04-27 14:07 51.68665 46.23846 1933 ft 86 kts 201°
2026-04-27 14:07 51.68068 46.23701 1935 ft 88 kts 201°
2026-04-27 14:07 51.67458 46.23545 1935 ft 90 kts 201°
2026-04-27 14:08 51.66833 46.23372 1936 ft 92 kts 201°
2026-04-27 14:08 51.66196 46.23195 1939 ft 94 kts 201°
2026-04-27 14:08 51.65551 46.23015 1943 ft 94 kts 201°
2026-04-27 14:08 51.64900 46.22828 1947 ft 95 kts 202°
2026-04-27 14:09 51.64279 46.22523 1950 ft 93 kts 209°
2026-04-27 14:09 51.63665 46.22205 1936 ft 91 kts 210°
2026-04-27 14:09 51.63082 46.21941 1939 ft 85 kts 208°
2026-04-27 14:09 51.62510 46.21672 1938 ft 87 kts 209°
2026-04-27 14:10 51.61923 46.21384 1939 ft 89 kts 208°
2026-04-27 14:10 51.61336 46.21038 1947 ft 91 kts 213°
2026-04-27 14:10 51.60752 46.20618 1948 ft 93 kts 214°
2026-04-27 14:10 51.60161 46.20172 1946 ft 93 kts 214°
2026-04-27 14:11 51.59624 46.19623 1944 ft 89 kts 240°
2026-04-27 14:11 51.59784 46.18716 1945 ft 105 kts 314°
2026-04-27 14:11 51.60415 46.18176 1908 ft 94 kts 299°
2026-04-27 14:11 51.60769 46.17359 1840 ft 86 kts 289°
2026-04-27 14:12 51.61055 46.16528 1735 ft 85 kts 287°
2026-04-27 14:12 51.61311 46.15680 1610 ft 84 kts 283°
2026-04-27 14:12 51.61508 46.14804 1486 ft 85 kts 278°
2026-04-27 14:12 51.61703 46.13950 1466 ft 83 kts 295°
2026-04-27 14:13 51.62308 46.13745 1455 ft 96 kts 351°
2026-04-27 14:13 51.62926 46.13827 1373 ft 82 kts 350°
2026-04-27 14:13 51.63510 46.13829 1303 ft 87 kts 341°
2026-04-27 14:13 51.64034 46.13582 1236 ft 69 kts 300°
2026-04-27 14:14 51.64351 46.13038 1197 ft 65 kts 292°
2026-04-27 14:14 51.64558 46.12445 1153 ft 58 kts 278°
2026-04-27 14:14 51.64619 46.11804 1105 ft 57 kts 267°
2026-04-27 14:14 51.64621 46.11159 1058 ft 59 kts 263°
2026-04-27 14:15 51.64628 46.10507 970 ft 55 kts 262°
2026-04-27 14:15 51.64613 46.09904 883 ft 55 kts 258°
2026-04-27 14:15 51.64578 46.09276 760 ft 59 kts 257°
2026-04-27 14:15 51.64560 46.08629 668 ft 55 kts 262°
2026-04-27 14:16 51.64544 46.08038 594 ft 54 kts 262°
2026-04-27 14:16 51.64524 46.07390 482 ft 56 kts 263°
2026-04-27 14:16 51.64509 46.06876 463 ft 39 kts 263°
2026-04-27 14:16 51.64519 46.06258 544 ft 65 kts 263°
2026-04-27 14:17 51.64489 46.05481 745 ft 69 kts 259°
2026-04-27 14:17 51.64474 46.04757 1025 ft 64 kts 263°
2026-04-27 14:17 51.64455 46.04037 1246 ft 65 kts 261°
2026-04-27 14:17 51.64418 46.03309 1416 ft 70 kts 250°
2026-04-27 14:18 51.63947 46.02998 1543 ft 87 kts 191°
2026-04-27 14:18 51.63326 46.02969 1531 ft 92 kts 192°
2026-04-27 14:18 51.62664 46.02986 1511 ft 96 kts 190°
2026-04-27 14:18 51.61997 46.03126 1503 ft 106 kts 166°
2026-04-27 14:19 51.61524 46.04142 1487 ft 125 kts 109°
2026-04-27 14:19 51.61523 46.05538 1475 ft 126 kts 90°
2026-04-27 14:19 51.61567 46.06950 1453 ft 129 kts 91°
2026-04-27 14:19 51.61592 46.08375 1484 ft 127 kts 92°
2026-04-27 14:20 51.61611 46.09794 1475 ft 125 kts 92°
2026-04-27 14:20 51.61733 46.11129 1475 ft 123 kts 56°
2026-04-27 14:20 51.62397 46.11603 1510 ft 100 kts 345°
2026-04-27 14:20 51.63075 46.11597 1462 ft 95 kts 347°
2026-04-27 14:21 51.63737 46.11621 1354 ft 94 kts 345°
2026-04-27 14:21 51.64378 46.11589 1237 ft 92 kts 337°
2026-04-27 14:21 51.64912 46.11312 1150 ft 67 kts 293°
2026-04-27 14:21 51.64883 46.10676 1029 ft 61 kts 242°
2026-04-27 14:22 51.64671 46.10087 909 ft 61 kts 248°
2026-04-27 14:22 51.64596 46.09416 825 ft 60 kts 261°
2026-04-27 14:22 51.64563 46.08770 699 ft 55 kts 260°
2026-04-27 14:22 51.64548 46.08177 600 ft 55 kts 261°
2026-04-27 14:23 51.64529 46.07533 507 ft 57 kts 263°
2026-04-27 14:23 51.64516 46.06978 462 ft 40 kts 266°
2026-04-27 14:23 51.64496 46.06436 534 ft 61 kts 263°
2026-04-27 14:23 51.64466 46.05663 693 ft 72 kts 260°
2026-04-27 14:24 51.64424 46.04820 905 ft 79 kts 264°
2026-04-27 14:24 51.64375 46.03950 1145 ft 78 kts 247°
2026-04-27 14:24 51.63923 46.03564 1399 ft 84 kts 194°
2026-04-27 14:24 51.63346 46.03598 1465 ft 83 kts 195°
2026-04-27 14:25 51.62780 46.03541 1599 ft 84 kts 200°
2026-04-27 14:25 51.62186 46.03391 1655 ft 90 kts 198°
2026-04-27 14:25 51.61561 46.03857 1620 ft 121 kts 134°
2026-04-27 14:25 51.61444 46.05186 1722 ft 123 kts 95°
2026-04-27 14:26 51.61499 46.06527 1846 ft 118 kts 83°
2026-04-27 14:26 51.61569 46.07845 1906 ft 119 kts 96°
2026-04-27 14:26 51.61538 46.09208 1919 ft 124 kts 97°
2026-04-27 14:26 51.61511 46.10611 1919 ft 127 kts 97°
2026-04-27 14:27 51.61440 46.12013 1920 ft 124 kts 109°
2026-04-27 14:27 51.61323 46.12916 1931 ft 126 kts 109°
2026-04-27 14:27 51.61149 46.14328 1923 ft 129 kts 109°
2026-04-27 14:27 51.60976 46.15741 1927 ft 128 kts 110°
2026-04-27 14:28 51.60737 46.17112 1928 ft 127 kts 115°
2026-04-27 14:28 51.60383 46.18383 1927 ft 124 kts 127°
2026-04-27 14:28 51.60208 46.19734 1914 ft 131 kts 72°
2026-04-27 14:28 51.60787 46.20665 1882 ft 113 kts 18°
2026-04-27 14:29 51.61414 46.21333 1859 ft 104 kts 25°
2026-04-27 14:29 51.61992 46.21967 1798 ft 99 kts 21°
2026-04-27 14:29 51.62577 46.22522 1684 ft 94 kts 21°
2026-04-27 14:29 51.63151 46.23062 1540 ft 98 kts 20°
2026-04-27 14:30 51.63775 46.23606 1432 ft 107 kts 15°
2026-04-27 14:30 51.64437 46.24172 1403 ft 107 kts 20°
2026-04-27 14:30 51.65084 46.24775 1382 ft 107 kts 21°
2026-04-27 14:30 51.65720 46.25364 1355 ft 105 kts 18°
2026-04-27 14:31 51.66361 46.25917 1261 ft 110 kts 19°
2026-04-27 14:31 51.67046 46.26480 1148 ft 108 kts 11°
2026-04-27 14:31 51.67742 46.26863 1117 ft 103 kts
2026-04-27 14:31 51.68413 46.27225 1113 ft 100 kts
2026-04-27 14:32 51.69062 46.27353 1117 ft 88 kts 336°
2026-04-27 14:32 51.69611 46.27030 1061 ft 84 kts 319°
2026-04-27 14:32 51.70093 46.26563 1034 ft 81 kts 309°
2026-04-27 14:32 51.70519 46.26048 1017 ft 71 kts 306°
2026-04-27 14:33 51.70876 46.25571 972 ft 61 kts 296°
2026-04-27 14:33 51.71089 46.25014 866 ft 60 kts 274°
2026-04-27 14:33 51.71126 46.24336 791 ft 60 kts 266°
2026-04-27 14:33 51.71135 46.23652 695 ft 62 kts 266°
2026-04-27 14:34 51.71153 46.22956 622 ft 62 kts 269°
2026-04-27 14:34 51.71174 46.22248 540 ft 63 kts 265°
2026-04-27 14:34 51.71167 46.21545 432 ft 61 kts 263°
2026-04-27 14:34 51.71177 46.20884 376 ft 59 kts 269°
2026-04-27 14:35 51.71191 46.20170 260 ft 66 kts 269°
2026-04-27 14:35 51.71210 46.19443 176 ft 63 kts 268°
2026-04-27 14:35 51.71224 46.18794 109 ft 50 kts 266°
2026-04-27 14:35 51.71230 46.18322 103 ft 35 kts 273°
2026-04-27 14:36 51.71245 46.17986 102 ft 25 kts 272°
2026-04-27 14:36 51.71249 46.17746 103 ft 18 kts 266°
2026-04-27 14:36 51.71255 46.17514 102 ft 21 kts 272°
2026-04-27 14:36 51.71311 46.17411 102 ft 13 kts 353°
2026-04-27 14:37 51.71384 46.17413 101 ft 1 kts 360°
2026-04-27 14:37 51.71485 46.17420 101 ft 14 kts
2026-04-27 14:37 51.71519 46.17278 100 ft 16 kts 271°
2026-04-27 14:37 51.71525 46.17096 99 ft 13 kts 270°
2026-04-27 14:38 51.71528 46.16943 99 ft 13 kts 272°
2026-04-27 14:38 51.71548 46.16848 98 ft 6 kts 353°
2026-04-27 14:38 51.71589 46.16894 99 ft 11 kts 49°
2026-04-27 14:38 51.71596 46.16907 99 ft 0 kts 49°